sat.trackr.live / text

‹ back to catalog

STARLINK-31878

NORAD 60031 · 2024-111R

PAYLOAD ACTIVE UNKNOWN

§ Identity

Operator
Country
US
Launch date
2024-06-08
Launch site
AFETR
Launch vehicle
Mass (kg)
RCS (m²)

Purposes: comms

External: N2YO · Heavens-Above · Gunter

§ Orbital elements

Epoch: 2026-09-21T12:23:56.532192Z

Period
93.85 min
Inclination
53.1601°
Eccentricity
0.0001505
Mean motion
15.34404511 rev/d
Perigee alt
461.7 km
Apogee alt
463.7 km
Semi-major
6,840.8 km
B*
6.6432e-5
RAAN
190.6625°
Arg perigee
86.3798°
Mean anomaly
273.7377°
Rev number
12,954

§ Raw data

STARLINK-318781 60031U 24111R   26264.51662653  .00001869  00000+0  66432-4 0  99912 60031  53.1601 190.6625 0001505  86.3798 273.7377 15.34404511129544

JSON: /api/v1/satellites/60031 · /tle

For live sub-satellite position, see the globe view (requires WebGL).

§ Visibility from observer

Set your observer location to see the next 7 days of passes ≥ 10°. The values pass through the URL so the page stays shareable.

No JS? Fill the form by hand. The geolocation button needs JavaScript.